Showing default

PROPCUBE 1, 40976

Orbit data source: Space-Track

PROPCUBE 1, 40976 is a payload satellite owned by USN PGS (US) in LEO that was launched on Thu, 08 Oct 2015 UTC via an ATLAS V 401 launch vehicle from the Air Force Western Test Range (AFWTR). Payload-class satellites include a variety of spacecraft equipped with specific instruments for various scientific and technological missions. These include communications satellites like Starlink; space stations such as the ISS; scientific satellites like the Hubble; Earth observation satellites from companies like Planet Labs, Umbra, and HawkEye 360; GPS; miniature CubeSats for education and research; and military/defense satellites.

Loading next visibility...
Identifier
40976, 2015-058N
Orbit
LEO
Country
Flag of USUS
Related business
Manufacturer
Tyvak NSS
Mission
Operational Defense Technology
Bus & Motor
CUBESAT 1U, Unknown motor
Mass
1 kg wet, 1 kg dry
Launch date (UTC)
2015-10-08 (11 years ago)
Launch vehicle
ATLAS V 401
Launch site
Air Force Western Test Range (AFWTR)
Object type
Payload
Rocket body
Debris
Shape & HBR
Box, 0.1 m
Radar Cross Section
0.015 m², Medium (>0.1 m² and < 1m²)

Expand to show TLE details & history
Last TLE update: 2 days ago

TLE from 2 days ago
0 PROPCUBE 1
1 40976U 15058N   26171.35198918  .00001612  00000-0  16064-3 0  9996
2 40976  64.7742 285.4273 0130904  59.7091 301.6897 14.89233326116730
Epoch: 2026-06-20T08:26Z
TLE epoch observation values (Epoch: 2026-06-20T08:26:51.865Z)
Latitude
0.00003°
Longitude
-109.85664°
Altitude
555.217 km
Speed
7.61 km/s
True Right ascension
19h 01m 42s
True Declination
0° 00' 00"
Sunlit
Object was in full shadow at epoch
Visualization orbit readout
Latitude
Unknown
Longitude
Unknown
Altitude
Unknown
Speed
Unknown
Apparent Right ascension
Unknown
Apparent Declination
Unknown
Sunlit
N/A
Visualization observer readout
Local Sidereal Time
23:18:49
Azimuth
Unknown
Elevation
Unknown
Doppler factor
Unknown
Orbital elements
Apogee altitude
690.23 km
Perigee altitude
507.566 km
Semi-major axis
6,977.035 km
Eccentricity
0.01309
Inclination
64.7742°
RAAN
285.4273°
Arg. of periapsis
59.7091°
True anomaly
300.40235°
Mean anomaly
301.6897°
Eccentric anomaly
301.04712°
Mean motion
3.72423 °/min
Orbital period
96.66 mins
BSTAR
0.00016064
Loading maneuver chart data...
Computing Atmospheric mass density...
Loading historical data...
Loading historical data...
Loading historical data...
Loading historical data...
Loading historical data...
Loading historical data...
Loading historical data...

Documentation

Showing up to 5 results
|